Weather History for Wichita Falls, TX

Change the Weather History Date:

Monday, December 2, 2013

  Actual Average Record
Temperature  
Mean Temperature 50 °F 46 °F  
Max Temperature 67 °F 58 °F 83 °F (1995)
Min Temperature 33 °F 34 °F 15 °F (1985)
Degree Days  
Heating Degree Days 15 19  
Month to date heating degree days 29 38  
Since 1 July heating degree days 587 545  
Cooling Degree Days 0 0  
Month to date cooling degree days 0 0  
Year to date cooling degree days 2628 2388  
Moisture  
Dew Point 39 °F    
Average Humidity 69    
Maximum Humidity 100    
Minimum Humidity 37    
Precipitation  
Precipitation 0.00 in 0.05 in 1.20 in (1971)
Month to date precipitation 0.00 0.11  
Year to date precipitation 20.04 27.41  
Snow  
Snow 0.00 in 0.00 in - ()
Month to date snowfall 0.0 0.0  
Since 1 July snowfall 0.2 0.3  
Snow Depth 0.00 in    
Sea Level Pressure  
Sea Level Pressure 29.76 in    
Wind  
Wind Speed 4 mph (WSW)    
Max Wind Speed 9 mph    
Max Gust Speed -    
Visibility 7 miles    
Events Fog    
T = Trace of Precipitation, MM = Missing Value Source: NWS Daily Summary

Daily Weather History Graph

Daily Weather History Graph

Search for Another Location

Airport:

Trip Planner

Search our weather history database for the weather conditions in past years. The results will help you decide how hot, cold, wet, or windy it might be!

Date:

Astronomy

Dec. 02, 2013 Rise Set
Actual Time 7:22 AM CST 5:24 PM CST
Civil Twilight 6:54 AM CST 5:52 PM CST
Nautical Twilight 6:23 AM CST 6:22 PM CST
Astronomical Twilight 5:53 AM CST 6:53 PM CST
Moon 6:50 AM CST (12/2) 5:27 PM CST (12/2)
Length of Visible Light 10h 57m
Length of Day
10h 02m
Waning Crescent, 0% of the Moon is Illuminated
Dec 2
Waning Crescent
Dec 2
New
Dec 9
First Quarter
Dec 17
Full
Dec 25
Last Quarter

Hourly Weather History & Observations

Time (CST) Temp. Windchill Dew Point Humidity Pressure Visibility Wind Dir Wind Speed Gust Speed Precip Events Conditions
12:52 AM 42.1 °F 39.2 °F 39.0 °F 89% 29.89 in 10.0 mi WNW 4.6 mph - N/A   Clear
1:52 AM 42.1 °F 40.2 °F 39.0 °F 89% 29.87 in 8.0 mi WNW 3.5 mph - N/A   Clear
2:52 AM 37.0 °F - 36.0 °F 96% 29.86 in 7.0 mi Calm Calm - 0.00 in   Clear
3:52 AM 39.0 °F 36.8 °F 37.9 °F 96% 29.83 in 6.0 mi WSW 3.5 mph - 0.00 in   Clear
4:52 AM 37.0 °F 34.5 °F 36.0 °F 96% 29.81 in 4.0 mi NNW 3.5 mph - N/A   Clear
5:52 AM 36.0 °F 32.1 °F 34.0 °F 93% 29.81 in 5.0 mi North 4.6 mph - N/A   Clear
6:52 AM 34.0 °F 29.8 °F 34.0 °F 100% 29.82 in 2.0 mi North 4.6 mph - 0.00 in   Clear
6:58 AM 33.8 °F 29.6 °F 33.8 °F 100% 29.82 in 3.0 mi NNW 4.6 mph - N/A   Partly Cloudy
7:05 AM 33.8 °F 29.6 °F 32.0 °F 93% 29.81 in 2.0 mi NNW 4.6 mph - N/A   Scattered Clouds
7:07 AM 33.8 °F 30.8 °F 32.0 °F 93% 29.81 in 0.5 mi NNW 3.5 mph - N/A Fog Fog
7:52 AM 33.1 °F 30.0 °F 32.0 °F 96% 29.81 in 1.0 mi East 3.5 mph - N/A   Mostly Cloudy
8:17 AM 33.8 °F - 33.8 °F 100% 29.80 in 0.1 mi Calm Calm - N/A Fog Fog
8:52 AM 36.0 °F - 36.0 °F 100% 29.81 in 0.2 mi Calm Calm - N/A Fog Fog
9:14 AM 37.4 °F - 37.4 °F 100% 29.80 in 1.0 mi Calm Calm - N/A   Partly Cloudy
9:25 AM 41.0 °F 39.0 °F 39.2 °F 93% 29.80 in 2.0 mi SSW 3.5 mph - N/A   Partly Cloudy
9:47 AM 44.6 °F - 42.8 °F 93% 29.80 in 7.0 mi Calm Calm - N/A   Partly Cloudy
9:52 AM 44.1 °F - 42.1 °F 93% 29.80 in 8.0 mi Calm Calm - N/A   Partly Cloudy
10:52 AM 55.0 °F - 44.1 °F 67% 29.79 in 10.0 mi Variable 3.5 mph - N/A   Partly Cloudy
11:52 AM 59.0 °F - 45.0 °F 60% 29.77 in 10.0 mi NNE 3.5 mph - N/A   Partly Cloudy
12:52 PM 62.1 °F - 43.0 °F 50% 29.71 in 10.0 mi Calm Calm - N/A   Partly Cloudy
1:52 PM 64.0 °F - 41.0 °F 43% 29.70 in 10.0 mi SSW 8.1 mph - N/A   Partly Cloudy
2:52 PM 66.0 °F - 39.9 °F 38% 29.67 in 10.0 mi SW 4.6 mph - N/A   Partly Cloudy
3:52 PM 66.9 °F - 41.0 °F 39% 29.66 in 10.0 mi SSW 3.5 mph - N/A   Partly Cloudy
4:52 PM 64.0 °F - 43.0 °F 46% 29.66 in 10.0 mi South 5.8 mph - N/A   Clear
5:52 PM 59.0 °F - 42.1 °F 53% 29.68 in 10.0 mi South 5.8 mph - N/A   Clear
6:52 PM 52.0 °F - 43.0 °F 71% 29.68 in 10.0 mi South 4.6 mph - N/A   Clear
7:52 PM 54.0 °F - 44.1 °F 69% 29.67 in 10.0 mi Calm Calm - N/A   Clear
8:52 PM 48.9 °F - 42.1 °F 77% 29.66 in 10.0 mi South 4.6 mph - N/A   Clear
9:52 PM 45.0 °F 43.5 °F 41.0 °F 86% 29.67 in 10.0 mi SSE 3.5 mph - N/A   Clear
10:52 PM 45.0 °F 41.8 °F 41.0 °F 86% 29.65 in 10.0 mi East 5.8 mph - N/A   Clear
11:52 PM 44.1 °F 40.8 °F 39.9 °F 85% 29.63 in 10.0 mi East 5.8 mph - N/A   Clear